Regional Weather Roundup
Issued by NWS Sioux Falls, SD

Home | Current Version | Previous Version | Text Only | Print | Product List | Glossary Off
Versions: 1 2 3 4 5 6 7 8 9 10 11 12 13 14 15 16 17 18 19 20 21 22 23 24 25 26 27 28 29 30 31 32 33 34 35 36 37 38 39 40 41 42 43 44 45 46 47 48 49 50

000
ASUS43 KFSD 011910
RWRFSD

WEATHER ROUNDUP FOR SE SOUTH DAKOTA/SW MINNESOTA/NW IOWA
NATIONAL WEATHER SERVICE SIOUX FALLS SD
200 PM CDT MON SEP 01 2014

NOTE: "FAIR" INDICATES FEW OR NO CLOUDS BELOW 12,000 FEET WITH NO
SIGNIFICANT WEATHER AND OR OBSTRUCTIONS TO VISIBILITY.


SDZ038>040-050-052>070-012000-
SOUTHEAST SOUTH DAKOTA

CITY           SKY/WX    TMP DP  RH WIND       PRES   REMARKS
CHAMBERLAIN    PTSUNNY   75  53  47 SW7       29.87F
HURON          MOSUNNY   75  54  47 VRB7      29.83F
MADISON        FAIR      72  59  64 NW12      29.86S
MITCHELL       MOSUNNY   75  58  55 NW9       29.86S
SIOUX FALLS    MOSUNNY   75  60  59 NW12      29.84S
WINNER         FAIR      77  50  38 VRB5      29.89F
YANKTON        MOSUNNY   75  61  60 W10G16    29.85S
$$

MNZ071-072-080-081-089-090-097-098-012000-
SOUTHWEST MINNESOTA

CITY           SKY/WX    TMP DP  RH WIND       PRES   REMARKS
FAIRMONT       MOSUNNY   75  55  50 W16       29.81R
JACKSON        MOSUNNY   75  57  53 W8        29.83S
LUVERNE        MOSUNNY   77  59  53 W14       29.85R
MARSHALL       MOSUNNY   75  52  43 NW12      29.80S
MONTEVIDEO     SUNNY     75  61  60 W8        29.81S
PIPESTONE      MOSUNNY   73  59  60 NW10G16   29.84S
REDWOOD FALLS  SUNNY     76  56  49 NW13G18   29.79S
TRACY          SUNNY     75  57  53 N8        29.82S
WINDOM         MOSUNNY   72  61  68 W7        29.82S
WORTHINGTON    PTSUNNY   73  61  64 W10       29.85R
$$

IAZ001>003-012>014-020>022-031-032-NEZ013-014-SDZ071-012000-
NORTHWEST IOWA

CITY           SKY/WX    TMP DP  RH WIND       PRES   REMARKS
CHEROKEE       PTSUNNY   75  64  68 W9        29.85S
DENISON        SUNNY     75  63  64 NW10G17   29.86R
ESTHERVILLE    MOSUNNY   72  61  68 NW8       29.83R
LE MARS        MOSUNNY   75  63  64 NW6       29.86S
ORANGE CITY    MOSUNNY   79  61  53 W12       29.86R
SHELDON        MOSUNNY   75  64  69 W8G14     29.84S
SIOUX CITY     MOSUNNY   78  62  57 VRB3      29.86S
SPENCER        MOSUNNY   76  60  57 W9        29.84R
STORM LAKE     MOSUNNY   73  70  88 NW12      29.86S
$$

ABBREVIATIONS USED IN REMARKS
   TC - TEMPERATURE IN CELSIUS
  WCI - WIND CHILL INDEX
   HX - HEAT INDEX
  VSB - VISIBILITY




USA.gov is the U.S. government's official web portal to all federal, state and local government web resources and services.